Regional Weather Roundup
Issued by NWS

Home | Current Version | Previous Version | Text Only | Print | Product List | Glossary Off
Versions: 1 2 3 4 5 6 7 8 9 10 11 12 13 14 15 16 17 18 19 20 21 22 23 24 25 26 27 28 29 30 31 32 33 34 35 36 37 38 39 40 41 42 43 44 45 46 47 48

000
ASUS45 KSLC 250910
RWRUT

UTAH REGIONAL WEATHER ROUNDUP
NATIONAL WEATHER SERVICE SALT LAKE CITY UT
200 AM MST THU DEC 25 2014

UTZ001>011-023>025-251000-

NORTHERN UTAH

CITY           SKY/WX    TMP DP  RH WIND       PRES   REMARKS
BRIGHAM CITY   CLOUDY    33  31  94 CALM      29.47R VSB 1
HILL AFB       LGT SNOW  32  32 100 W10       29.47R FOG     WCI  24
LOGAN          SNOW      33  31  92 N3        29.42S VSB 1/2
OGDEN          LGT SNOW  32  32 100 SW8       29.47R FOG     WCI  25
PROVO AIRPORT  CLOUDY    36  30  80 NE12      29.48F WCI  27
SALT LAKE CITY LGT RAIN  34  32  92 E5        29.46S WCI  30
VERNAL         CLOUDY    27  17  66 CALM      29.54F
WENDOVER       CLOUDY    36  21  55 NW15G22   29.54R WCI  26
HEBER CITY     LGT SNOW  32  30  93 S13G22    29.44F WCI  22
WEST JORDAN    CLOUDY    34  34 100 SE3       29.47S

$$

UTZ012>022-026-027-251000-

SOUTHERN/CENTRAL UTAH

CITY           SKY/WX    TMP DP  RH WIND       PRES   REMARKS
BLANDING       MOCLDY    28  16  58 CALM      29.73F
BRYCE CANYON   CLOUDY    26  14  60 SE8       29.57F WCI  18
CEDAR CITY     CLOUDY    35  18  49 NW22G30   29.55R WCI  23
DELTA          CLOUDY    38  29  71 SW21      29.50R WCI  28
MILFORD        CLOUDY    37  23  56 SW20G41   29.55R WCI  27
MOAB/CYNLANDS  CLOUDY    31  18  58 SE6       29.56F WCI  25
PRICE          CLOUDY    26  17  68 W3        29.55F
ST GEORGE      CLOUDY    34  16  47 NW5       29.62F WCI  30
KANAB            N/A     32  23  69 CALM      29.63F

$$

REGIONAL REPORTS     COLORADO/ARIZONA

CITY           SKY/WX    TMP DP  RH WIND       PRES   REMARKS
CRAIG, CO      FLURRIES  27  20  75 NE3       29.54F
GRAND JUNCTION CLOUDY    27  21  78 CALM      29.57F
RIFLE          CLOUDY    25  17  72 NE3       29.63F
MONTROSE       CLOUDY    29  17  61 E8        29.61F WCI  21
CORTEZ         CLEAR     28  16  60 CALM      29.67F
PAGE, AZ       CLOUDY    34  17  50 CALM      29.60F
GRAND CANYON   MOCLDY    34  11  38 SW17      29.68S WCI  23
KINGMAN        PTCLDY    43  14  31 S6        29.68S
FLAGSTAFF      CLEAR     32   7  35 SW22G35   29.71F WCI  19

$$

REGIONAL REPORTS    NEVADA/IDAHO/WYOMING

CITY           SKY/WX    TMP DP  RH WIND       PRES   REMARKS
LAS VEGAS, NV  CLOUDY    52  24  33 NW18G35   29.60R
ELY            CLOUDY    26  19  74 NW13G21   29.60R WCI  15
ELKO           FLURRIES  28  19  69 VRB7G17   29.71R WCI  21
POCATELLO, ID  LGT SNOW  29  29 100 SW22G30   29.43S VSB 1   WCI  15
EVANSTON, WY   LGT SNOW  30  28  92 SW18G33   29.38S VSB 1   WCI  18
ROCK SPRINGS   CLOUDY    27  16  63 S13       29.38F WCI  16
KEMMERER       LGT SNOW  32  30  93 SW12      29.36F WCI  23

$$


USA.gov is the U.S. government's official web portal to all federal, state and local government web resources and services.